FW3071 Weather Reports


Display with metric or nautical units.
time (UTC)temp
F
wind
direction
speed
MPH
gust
MPH
rain 1hr
in
rain 24hr
in
rain mn
in
humidity
%
barometer
mb
20260510130518 77 165 5.0 11.0 0.00 0.07 0.00 95 1011.7
20260510130035 77 126 6.0 11.0 0.00 0.07 0.00 95 1011.6
20260510125521 77 126 6.0 11.0 0.00 0.27 0.00 95 1011.5
20260510125021 77 114 6.0 10.0 0.00 0.27 0.00 95 1011.6
20260510124539 77 108 3.0 7.0 0.00 0.27 0.00 95 1011.5
20260510124019 76 130 2.0 4.0 0.00 0.27 0.00 95 1011.5
20260510123519 76 130 1.0 4.0 0.00 0.27 0.00 95 1011.5
20260510123036 76 130 2.0 4.0 0.00 0.27 0.00 95 1011.5
20260510122518 76 130 2.0 5.0 0.00 0.27 0.00 95 1011.4
20260510122020 76 130 2.0 8.0 0.00 0.27 0.00 95 1011.4
20260510121535 76 130 3.0 8.0 0.00 0.27 0.00 95 1011.3
20260510121019 76 130 3.0 8.0 0.00 0.27 0.00 95 1011.3
20260510120524 76 134 2.0 5.0 0.00 0.27 0.00 95 1011.2
20260510120035 76 134 2.0 9.0 0.00 0.27 0.00 95 1011.2
20260510115520 76 134 4.0 9.0 0.00 0.50 0.00 95 1011.0
20260510115019 76 145 3.0 8.0 0.00 0.50 0.00 95 1011.0
20260510114534 76 157 3.0 8.0 0.00 0.50 0.00 95 1011.0
20260510114019 76 153 5.0 7.0 0.00 0.50 0.00 95 1011.0
20260510113518 75 155 3.0 6.0 0.00 0.50 0.00 95 1011.1
20260510113042 75 145 2.0 6.0 0.00 0.50 0.00 95 1011.1
20260510112518 75 145 1.0 6.0 0.00 0.50 0.00 95 1011.0
20260510112019 75 122 2.0 5.0 0.00 0.50 0.00 95 1011.0
20260510111539 75 122 1.0 4.0 0.00 0.50 0.00 95 1011.0
20260510111017 75 122 1.0 3.0 0.00 0.50 0.00 95 1011.0
20260510110517 75 122 0.0 3.0 0.00 0.50 0.00 95 1010.9
20260510110049 75 122 0.0 4.0 0.00 0.50 0.00 95 1010.9
20260510105522 75 122 0.0 4.0 0.00 0.69 0.00 95 1011.0
20260510105018 75 122 2.0 4.0 0.00 0.69 0.00 95 1011.0
20260510104535 75 122 1.0 3.0 0.00 0.69 0.00 95 1011.1
20260510104017 75 122 1.0 3.0 0.00 0.69 0.00 95 1011.0
20260510103517 75 122 1.0 4.0 0.00 0.69 0.00 95 1010.9
20260510103039 75 122 1.0 6.0 0.00 0.69 0.00 95 1010.9
20260510102518 75 122 2.0 6.0 0.00 0.69 0.00 95 1010.9
20260510102020 75 122 3.0 7.0 0.00 0.69 0.00 95 1010.9
20260510101534 76 138 3.0 7.0 0.00 0.69 0.00 95 1010.9
20260510101018 76 130 2.0 6.0 0.00 0.69 0.00 95 1010.9
20260510100522 76 145 3.0 6.0 0.00 0.69 0.00 95 1010.9
20260510100048 75 125 2.0 7.0 0.00 0.69 0.00 95 1011.0
20260510095521 75 125 1.0 7.0 0.00 0.70 0.00 94 1011.0
20260510095021 75 132 1.0 7.0 0.00 0.70 0.00 94 1010.8
20260510094541 75 0 0.0 4.0 0.00 0.70 0.00 94 1010.9
20260510094022 75 132 0.0 4.0 0.00 0.70 0.00 94 1011.0
20260510093521 75 132 1.0 4.0 0.00 0.70 0.00 94 1011.0
20260510093039 75 0 1.0 3.0 0.00 0.70 0.00 94 1011.0
20260510092522 75 132 1.0 4.0 0.00 0.70 0.00 94 1010.8
20260510092021 75 132 2.0 4.0 0.00 0.70 0.00 94 1010.8
20260510091534 75 132 2.0 4.0 0.00 0.70 0.00 94 1010.8
20260510091020 75 132 1.0 3.0 0.00 0.70 0.00 94 1010.7
20260510090522 75 0 0.0 4.0 0.00 0.70 0.00 94 1010.6
20260510090035 75 0 1.0 4.0 0.00 0.70 0.00 94 1010.7
20260510085521 75 132 0.0 5.0 0.00 0.70 0.00 94 1010.6
20260510085021 75 132 1.0 5.0 0.00 0.70 0.00 94 1010.7
20260510084547 76 132 2.0 7.0 0.00 0.70 0.00 94 1010.7
20260510084020 76 132 2.0 7.0 0.00 0.70 0.00 94 1010.7
20260510083523 76 122 1.0 4.0 0.00 0.70 0.00 94 1010.7
20260510083039 76 140 1.0 5.0 0.00 0.70 0.00 94 1010.7
20260510082523 76 127 2.0 6.0 0.00 0.70 0.00 94 1010.8
20260510082021 75 149 3.0 7.0 0.00 0.70 0.00 94 1010.8
20260510081542 75 165 3.0 7.0 0.00 0.70 0.00 93 1010.8
20260510081022 76 153 3.0 8.0 0.00 0.70 0.00 93 1010.8
20260510080521 76 151 3.0 8.0 0.00 0.70 0.00 93 1010.8
20260510080052 76 138 3.0 8.0 0.00 0.70 0.00 93 1010.9
20260510075522 76 148 3.0 7.0 0.00 0.70 0.00 93 1010.9
20260510075022 76 135 3.0 7.0 0.00 0.70 0.00 93 1011.0
20260510074544 76 136 2.0 7.0 0.00 0.70 0.00 93 1011.0
20260510074021 76 136 4.0 8.0 0.00 0.70 0.00 93 1011.0
20260510073521 76 112 3.0 9.0 0.00 0.70 0.00 93 1011.0
20260510073049 76 136 4.0 9.0 0.00 0.70 0.00 93 1011.0
20260510072521 76 159 4.0 11.0 0.00 0.70 0.00 93 1011.0
20260510072022 76 154 5.0 11.0 0.00 0.70 0.00 92 1011.0
20260510071543 76 144 5.0 10.0 0.00 0.70 0.00 92 1010.9
20260510071021 76 147 5.0 9.0 0.00 0.70 0.00 92 1010.9
20260510070521 76 138 5.0 9.0 0.00 0.70 0.00 92 1011.1
20260510070048 76 142 5.0 11.0 0.00 0.70 0.00 92 1011.1
20260510065521 76 140 5.0 11.0 0.00 0.70 0.00 92 1011.1
20260510065021 76 130 7.0 11.0 0.00 0.70 0.00 92 1011.3
20260510064545 76 180 6.0 11.0 0.00 0.70 0.00 92 1011.3
20260510064021 76 141 5.0 10.0 0.00 0.70 0.00 92 1011.4
20260510063521 76 121 5.0 8.0 0.00 0.70 0.00 91 1011.5
20260510063038 76 115 4.0 11.0 0.00 0.70 0.00 91 1011.4
20260510062522 76 98 4.0 11.0 0.00 0.70 0.00 91 1011.5
20260510062021 76 134 4.0 10.0 0.00 0.70 0.00 91 1011.5
20260510061535 76 107 4.0 10.0 0.00 0.70 0.00 91 1011.5
20260510061024 76 119 6.0 10.0 0.00 0.70 0.00 91 1011.4
20260510060519 76 88 4.0 9.0 0.00 0.70 0.00 91 1011.5
20260510060047 76 86 4.0 8.0 0.00 0.70 0.00 91 1011.5
20260510055526 76 118 4.0 8.0 0.00 0.70 0.00 91 1011.4
20260510055022 76 105 3.0 8.0 0.00 0.70 0.00 91 1011.4
20260510054540 75 81 4.0 8.0 0.00 0.70 0.00 90 1011.4
20260510054022 75 108 4.0 7.0 0.00 0.70 0.00 90 1011.3
20260510053520 76 117 2.0 7.0 0.00 0.70 0.00 90 1011.2
20260510053039 76 121 3.0 10.0 0.00 0.70 0.00 90 1011.1
20260510052519 76 146 5.0 10.0 0.00 0.70 0.00 90 1011.1
20260510052022 76 129 4.0 11.0 0.00 0.70 0.00 90 1011.0
20260510051543 76 105 4.0 15.0 0.00 0.70 0.00 90 1010.9
20260510051023 76 165 7.0 15.0 0.00 0.70 0.00 90 1010.6
20260510050519 76 148 8.0 14.0 0.00 0.70 0.00 90 1010.5
20260510050037 76 151 8.0 12.0 0.00 0.70 0.00 89 1010.6
20260510045522 76 168 8.0 11.0 0.00 0.70 0.70 90 1010.6
20260510045019 76 161 7.0 10.0 0.00 0.70 0.70 89 1010.7
20260510044536 76 145 5.0 11.0 0.00 0.70 0.70 89 1010.7
20260510044019 76 148 5.0 11.0 0.00 0.70 0.70 89 1010.7
20260510043522 76 140 6.0 10.0 0.00 0.70 0.70 88 1010.7
20260510043034 76 145 5.0 10.0 0.00 0.70 0.70 88 1010.7
20260510042522 76 141 4.0 8.0 0.00 0.70 0.70 87 1010.8
20260510042020 76 156 3.0 8.0 0.00 0.70 0.70 87 1010.7
20260510041542 76 131 5.0 8.0 0.00 0.70 0.70 87 1010.7
20260510041023 76 122 4.0 8.0 0.00 0.70 0.70 86 1010.9
20260510040519 76 118 2.0 9.0 0.00 0.70 0.70 86 1010.8
20260510040040 76 131 4.0 10.0 0.00 0.70 0.70 86 1010.8
20260510035521 77 105 5.0 10.0 0.00 0.70 0.70 86 1010.7
20260510035019 77 104 5.0 10.0 0.00 0.70 0.70 85 1010.7
20260510034550 77 126 4.0 11.0 0.00 0.70 0.70 85 1010.6
20260510034022 77 115 7.0 11.0 0.00 0.70 0.70 85 1010.5
20260510033519 77 119 7.0 12.0 0.00 0.70 0.70 84 1010.5
20260510033051 77 113 7.0 12.0 0.00 0.70 0.70 84 1010.6
20260510032519 77 93 7.0 12.0 0.00 0.70 0.70 83 1010.5
20260510032019 77 97 8.0 12.0 0.00 0.70 0.70 83 1010.4
20260510031538 77 140 7.0 12.0 0.00 0.70 0.70 82 1010.4
20260510031019 77 113 6.0 13.0 0.00 0.70 0.70 82 1010.3
20260510030519 77 107 7.0 13.0 0.00 0.70 0.70 81 1010.2
20260510030034 77 118 8.0 13.0 0.00 0.70 0.70 81 1010.1
20260510025522 77 107 9.0 13.0 0.00 0.70 0.70 81 1010.0
20260510025020 77 119 5.0 11.0 0.00 0.70 0.70 81 1009.9
20260510024535 77 103 6.0 10.0 0.00 0.70 0.70 81 1009.7
20260510024017 77 109 6.0 10.0 0.00 0.70 0.70 81 1009.7
20260510023520 77 105 7.0 14.0 0.00 0.70 0.70 81 1009.6
20260510023039 77 107 8.0 14.0 0.00 0.70 0.70 81 1009.6
20260510022519 77 126 8.0 13.0 0.00 0.70 0.70 80 1009.4
20260510022019 77 148 4.0 10.0 0.00 0.70 0.70 81 1009.2
20260510021616 77 127 5.0 11.0 0.00 0.70 0.70 80 1009.2
20260510021019 77 129 5.0 11.0 0.00 0.70 0.70 80 1009.3
20260510020519 78 133 8.0 11.0 0.00 0.70 0.70 80 1009.0
20260510020035 78 129 7.0 14.0 0.00 0.70 0.70 79 1009.1
20260510015521 78 133 7.0 14.0 0.00 0.70 0.70 78 1009.1
20260510015018 78 128 6.0 14.0 0.00 0.70 0.70 77 1009.1
20260510014548 78 129 9.0 14.0 0.00 0.70 0.70 76 1009.2
20260510014020 78 98 8.0 12.0 0.00 0.70 0.70 74 1009.0
20260510013522 79 105 7.0 11.0 0.00 0.70 0.70 73 1008.8
20260510013035 79 146 6.0 11.0 0.00 0.70 0.70 72 1008.9
20260510012519 79 125 4.0 10.0 0.00 0.70 0.70 73 1008.8
20260510012019 79 129 4.0 11.0 0.00 0.70 0.70 73 1008.9
20260510011534 80 116 6.0 11.0 0.00 0.70 0.70 73 1008.7
20260510011017 80 130 5.0 12.0 0.00 0.70 0.70 73 1008.7
20260510010517 80 133 5.0 12.0 0.00 0.70 0.70 72 1008.9
20260510010052 81 123 7.0 12.0 0.00 0.70 0.70 71 1008.8
20260510005517 81 132 7.0 14.0 0.00 0.70 0.70 70 1008.8
20260510005019 81 111 9.0 14.0 0.00 0.70 0.70 69 1008.8
20260510004539 82 133 8.0 15.0 0.00 0.70 0.70 69 1008.9
20260510004019 82 126 9.0 15.0 0.00 0.70 0.70 67 1008.9
20260510003519 83 127 9.0 14.0 0.00 0.70 0.70 67 1008.9
20260510003036 83 116 9.0 15.0 0.00 0.70 0.70 66 1009.1
20260510002520 83 148 10.0 15.0 0.00 0.70 0.70 64 1009.1
20260510002019 84 135 11.0 15.0 0.00 0.70 0.70 64 1009.1
20260510001536 84 82 8.0 14.0 0.00 0.70 0.70 63 1009.0
20260510001019 84 99 7.0 13.0 0.00 0.70 0.70 63 1009.0
20260510000520 84 119 8.0 15.0 0.00 0.70 0.70 63 1008.9
20260510000036 84 116 8.0 16.0 0.00 0.70 0.70 64 1008.9
20260509235520 84 150 9.0 16.0 0.00 0.70 0.70 63 1009.0
20260509235019 85 110 11.0 16.0 0.00 0.70 0.70 62 1008.9
20260509234535 85 122 11.0 16.0 0.00 0.70 0.70 62 1008.9
20260509234018 85 114 11.0 16.0 0.00 0.70 0.70 61 1008.9
20260509233519 86 138 9.0 17.0 0.00 0.70 0.70 61 1008.9
20260509233039 86 137 11.0 17.0 0.00 0.70 0.70 59 1008.9
20260509232521 86 109 12.0 16.0 0.00 0.70 0.70 58 1009.0
20260509232019 87 137 10.0 16.0 0.00 0.70 0.70 59 1009.0
20260509231537 87 97 10.0 16.0 0.00 0.70 0.70 60 1009.0
20260509231019 87 130 10.0 16.0 0.00 0.70 0.70 56 1009.2
20260509230519 88 127 11.0 18.0 0.00 0.70 0.70 58 1009.1
20260509230044 88 119 11.0 18.0 0.00 0.70 0.70 58 1009.1
20260509225519 88 129 12.0 18.0 0.00 0.70 0.70 55 1009.1
20260509225018 88 113 13.0 18.0 0.00 0.70 0.70 58 1009.1
20260509224536 88 111 11.0 16.0 0.00 0.70 0.70 57 1009.0
20260509224019 87 101 10.0 20.0 0.00 0.70 0.70 58 1009.1
20260509223519 87 109 15.0 20.0 0.00 0.70 0.70 55 1009.0
20260509223038 88 90 12.0 18.0 0.00 0.70 0.70 56 1009.1
20260509222519 89 115 12.0 18.0 0.00 0.70 0.70 55 1009.2
20260509222019 89 91 10.0 16.0 0.00 0.70 0.70 60 1009.1
20260509221538 89 117 10.0 15.0 0.00 0.70 0.70 57 1009.1
20260509221021 90 96 11.0 16.0 0.00 0.70 0.70 55 1009.1
20260509220522 90 100 9.0 16.0 0.00 0.70 0.70 57 1009.1
20260509220035 89 117 12.0 16.0 0.00 0.70 0.70 55 1009.2
20260509215517 89 85 10.0 16.0 0.00 0.70 0.70 55 1009.0
20260509215019 90 98 11.0 16.0 0.00 0.70 0.70 54 1009.0
20260509214542 90 98 12.0 16.0 0.00 0.70 0.70 53 1009.0
20260509214019 91 129 10.0 14.0 0.00 0.70 0.70 53 1008.9
20260509213519 92 109 8.0 15.0 0.00 0.70 0.70 54 1009.0
20260509213040 91 140 9.0 15.0 0.00 0.70 0.70 53 1009.0
20260509212520 90 103 10.0 15.0 0.00 0.70 0.70 54 1009.0
20260509212022 90 124 9.0 15.0 0.00 0.70 0.70 53 1009.1
20260509211537 91 127 8.0 15.0 0.00 0.70 0.70 52 1009.0
20260509211019 91 132 9.0 14.0 0.00 0.70 0.70 50 1009.0
20260509210521 92 109 8.0 12.0 0.00 0.70 0.70 51 1009.0
20260509210040 91 82 7.0 12.0 0.00 0.70 0.70 54 1009.1
20260509205517 92 106 7.0 12.0 0.00 0.70 0.70 53 1009.2
20260509205019 92 99 7.0 12.0 0.00 0.70 0.70 52 1009.2
20260509204542 92 113 8.0 13.0 0.00 0.70 0.70 52 1009.1
20260509204020 92 84 9.0 15.0 0.00 0.70 0.70 54 1009.2
20260509203519 92 130 9.0 15.0 0.00 0.70 0.70 53 1009.2
20260509203039 93 122 6.0 12.0 0.00 0.70 0.70 55 1009.2
20260509202519 92 98 6.0 12.0 0.00 0.70 0.70 56 1009.3
20260509202021 92 129 8.0 12.0 0.00 0.70 0.70 55 1009.4
20260509201540 92 96 6.0 12.0 0.00 0.70 0.70 57 1009.4
20260509201019 92 101 8.0 12.0 0.00 0.70 0.70 57 1009.5
20260509200519 92 94 6.0 10.0 0.00 0.70 0.70 58 1009.4
20260509200039 92 70 5.0 10.0 0.00 0.70 0.70 58 1009.5
20260509195520 92 66 4.0 10.0 0.00 0.70 0.70 59 1009.4
20260509195019 92 69 5.0 10.0 0.00 0.70 0.70 59 1009.5
20260509194550 91 61 6.0 11.0 0.00 0.70 0.70 60 1009.7
20260509194019 90 22 6.0 14.0 0.00 0.70 0.70 61 1009.6
20260509193519 90 25 7.0 14.0 0.00 0.70 0.70 59 1009.6
20260509193035 90 32 9.0 14.0 0.00 0.70 0.70 59 1009.7
20260509192519 90 11 7.0 13.0 0.00 0.70 0.70 59 1009.6
20260509192019 91 26 10.0 13.0 0.00 0.70 0.70 58 1009.6
20260509191541 92 355 7.0 12.0 0.00 0.70 0.70 59 1009.5
20260509191023 92 95 4.0 8.0 0.00 0.70 0.70 59 1009.5
20260509190519 91 115 4.0 7.0 0.00 0.70 0.70 60 1009.4
20260509190037 91 126 3.0 6.0 0.00 0.70 0.70 57 1009.4
20260509185519 91 134 3.0 6.0 0.00 0.70 0.70 60 1009.4
20260509185019 91 140 2.0 6.0 0.00 0.70 0.70 58 1009.3
20260509184535 91 127 0.0 6.0 0.00 0.70 0.70 62 1009.4
20260509184017 91 127 3.0 6.0 0.00 0.70 0.70 60 1009.4
20260509183519 90 82 1.0 7.0 0.00 0.70 0.70 62 1009.3
20260509183036 90 58 2.0 9.0 0.00 0.70 0.70 63 1009.4
20260509182520 90 51 3.0 9.0 0.00 0.70 0.70 62 1009.5
20260509182017 90 77 4.0 10.0 0.00 0.70 0.70 65 1009.5
20260509181534 89 46 4.0 10.0 0.00 0.70 0.70 65 1009.5
20260509181017 88 31 6.0 10.0 0.00 0.70 0.70 67 1009.6
20260509180518 87 0 0.0 7.0 0.00 0.70 0.70 60 1009.7
20260509180051 87 192 3.0 7.0 0.00 0.70 0.70 58 1009.6
20260509175519 87 196 3.0 6.0 0.00 0.70 0.70 56 1009.6
20260509175019 87 0 1.0 6.0 0.00 0.70 0.70 56 1009.8
20260509174540 87 233 3.0 6.0 0.00 0.70 0.70 60 1009.7
20260509174019 87 250 1.0 6.0 0.00 0.70 0.70 61 1009.7
20260509173520 86 0 3.0 6.0 0.00 0.70 0.70 62 1009.7
20260509173051 86 251 2.0 7.0 0.00 0.70 0.70 62 1009.7
20260509172523 86 263 4.0 7.0 0.00 0.70 0.70 61 1009.7
20260509172021 85 0 2.0 6.0 0.00 0.70 0.70 64 1009.8
20260509171539 85 0 0.0 7.0 0.00 0.70 0.70 62 1009.9
20260509171020 84 244 1.0 7.0 0.00 0.70 0.70 65 1009.8
20260509170519 84 246 2.0 7.0 0.00 0.70 0.70 66 1010.0
20260509170035 84 277 1.0 6.0 0.00 0.70 0.70 66 1010.0
20260509165517 84 204 0.0 6.0 0.00 0.70 0.70 66 1010.0
20260509165019 83 264 0.0 6.0 0.00 0.70 0.70 70 1010.1
20260509164541 83 264 0.0 7.0 0.00 0.70 0.70 69 1010.3
20260509164017 82 0 0.0 7.0 0.00 0.70 0.70 71 1010.5
20260509163523 82 298 3.0 8.0 0.00 0.70 0.70 71 1010.6
20260509163036 82 296 4.0 8.0 0.00 0.70 0.70 70 1010.8
20260509162520 82 310 3.0 7.0 0.00 0.70 0.70 73 1010.6
20260509162018 81 0 3.0 9.0 0.00 0.70 0.70 76 1010.8
20260509161546 80 306 3.0 10.0 0.00 0.70 0.70 77 1010.8
20260509161019 79 329 4.0 10.0 0.00 0.70 0.70 78 1011.0
20260509160518 78 303 5.0 11.0 0.00 0.70 0.70 79 1011.0
20260509160037 78 269 6.0 11.0 0.00 0.70 0.70 79 1010.9
20260509155517 77 323 5.0 11.0 0.00 0.70 0.70 80 1010.8
20260509155017 77 274 4.0 10.0 0.00 0.70 0.70 81 1010.7
20260509154540 77 315 6.0 10.0 0.00 0.70 0.70 80 1010.3
20260509154018 76 280 5.0 9.0 0.00 0.70 0.70 81 1010.1
20260509153519 76 306 3.0 5.0 0.00 0.70 0.70 83 1010.0
20260509153053 76 290 3.0 8.0 0.00 0.70 0.70 82 1010.1
20260509152519 76 293 4.0 8.0 0.00 0.70 0.70 83 1009.9
20260509152019 76 301 2.0 5.0 0.00 0.70 0.70 84 1009.9
20260509151536 75 0 3.0 8.0 0.00 0.70 0.70 84 1010.0
20260509151019 75 307 4.0 8.0 0.00 0.70 0.70 84 1009.9
20260509150519 75 317 5.0 8.0 0.00 0.70 0.70 84 1009.8
20260509150036 75 332 1.0 4.0 0.00 0.70 0.70 85 1009.6
20260509145523 74 303 1.0 8.0 0.00 0.70 0.70 85 1009.5
20260509145020 74 284 2.0 8.0 0.00 0.70 0.70 85 1009.5
20260509144534 74 274 4.0 8.0 0.00 0.70 0.70 85 1009.6
20260509144021 73 287 4.0 7.0 0.00 0.70 0.70 85 1009.5
20260509143521 73 281 3.0 7.0 0.00 0.70 0.70 85 1009.4
20260509143042 73 147 1.0 14.0 0.00 0.70 0.70 86 1009.1
20260509142519 73 136 6.0 14.0 0.00 0.70 0.70 86 1008.8
20260509142019 73 105 8.0 17.0 0.00 0.70 0.70 85 1008.3
20260509141543 72 115 10.0 19.0 0.01 0.70 0.70 86 1008.4
20260509141020 72 91 11.0 19.0 0.03 0.70 0.70 86 1008.2
20260509140523 72 105 10.0 18.0 0.04 0.70 0.70 86 1008.7
20260509140054 72 76 10.0 18.0 0.06 0.70 0.70 87 1008.8
20260509135520 71 104 12.0 26.0 0.09 0.70 0.70 88 1008.4
20260509135020 71 100 12.0 26.0 0.11 0.70 0.70 88 1008.6
20260509134535 71 113 16.0 26.0 0.14 0.70 0.70 90 1008.5
20260509134021 71 93 13.0 28.0 0.16 0.70 0.70 91 1008.5
20260509133519 71 132 13.0 28.0 0.17 0.70 0.70 91 1008.5
20260509133038 70 112 13.0 29.0 0.18 0.70 0.70 91 1008.1
20260509132522 70 100 18.0 34.0 0.19 0.70 0.70 92 1008.3
20260509132020 70 101 23.0 34.0 0.20 0.69 0.69 92 1008.0
20260509131541 70 107 23.0 34.0 0.21 0.69 0.69 92 1007.7
20260509131022 69 119 19.0 30.0 0.20 0.67 0.67 92 1009.3